Sisseton, SD

9:38 PM CST on February 27, 2017 (GMT -0600)
W Browns Valley Twp | | Change Station

Elev 1089 ft 45.56 °N, 96.74 °W | Updated 7 seconds ago

Snow
Snow
32.0 °F
Feels Like 29 °F
N
3.4
Wind Variable Wind from SSW
Gusts 4.9 mph

Today
High -- | Low -- °F
--% Chance of Precip.
Yesterday
High -- | Low -- °F
Precip. -- in
Pressure 29.81 in
Visibility 10.0 miles
Clouds Mostly Cloudy 8000 ft
Windchill 29 °F
Dew Point 11 °F
Humidity 41%
Rainfall 0.02 in
Snow Depth Not available.
7:09 AM 6:12 PM
Waxing Crescent, 3% visible
METAR KETH 280316Z AUTO 33008KT 10SM BKN080 00/M02 A2981 RMK AO2
Pressure 29.81 in
Visibility 10.0 miles
Clouds Mostly Cloudy 8000 ft
Windchill 29 °F
Dew Point 11 °F
Humidity 41%
Rainfall 0.02 in
Snow Depth Not available.
7:09 AM 6:12 PM
Waxing Crescent, 3% visible
METAR KETH 280316Z AUTO 33008KT 10SM BKN080 00/M02 A2981 RMK AO2

Get Your Daily Forecast Email!

Thanks for signing up!

Be on the lookout for a verification email in your inbox.

You'll start receiving the daily forecast at 8 AM.

×

10-Day Weather Forecast

Almanac

Astronomy

Feb. 27, 2017 Rise Set
Actual Time
Civil Twilight
Nautical Twilight
Astronomical Twilight
Moon
Length of Visible Light
Length of Day
Tomorrow will be .
, % of the Moon is Illuminated

Today's Extremes

State Highs State Lows

Community

WunderPhotos

Upload Photos

1,962,540 photos uploaded!

WunderBlog® & News

Nearby

Air Quality

  Air Quality AQ Index Pollutant
Not available.

Snow Depth

Station Depth Elevation

Earthquake Activity

City Distance Mag. Time & Date
Minimum magnitude displayed is 2.5.

Coastal Water Temperatures

Place Temperature

Stations

Nearby Weather Stations

Station Location Temp. Windchill Dew Point Humidity Wind Precip. Elev Updated Type
                   

Watches & Warnings

There are currently no watches in effect.